Location: ?????????
(38.0736°N, 23.2119°E)
Time: 05:37:13
(UTC+00:00)

Resurs 1-4 Rocket - Visible Passes

Search period start: 16 July 2024 00:00
Search period end: 26 July 2024 00:00
Orbit: 799 x 812 km, 98.7° (Epoch: 15 July)

Date Brightness Start Highest point End Pass type
(mag) Time Alt. Az. Time Alt. Az. Time Alt. Az.
16 Jul 3.3 01:22:48 10° N 01:27:19 29° WNW 01:29:11 23° W visible
16 Jul 4.0 23:18:49 10° NE 23:22:35 19° E 23:22:51 19° E visible
17 Jul 2.5 00:57:29 10° N 01:02:35 48° WNW 01:03:54 39° WSW visible
17 Jul 4.6 22:56:21 10° ENE 22:57:23 11° E 22:57:35 10° E visible
18 Jul 2.0 00:32:25 10° NNE 00:37:45 83° WNW 00:38:38 63° SSW visible
18 Jul 4.3 02:16:05 10° NW 02:16:39 10° WNW 02:17:13 10° WNW visible
19 Jul 2.3 00:07:35 10° NNE 00:12:50 58° E 00:13:22 55° SE visible
19 Jul 3.9 01:48:41 10° NNW 01:52:07 18° WNW 01:54:25 14° W visible
19 Jul 3.2 23:43:03 10° NNE 23:47:50 33° E 23:48:05 33° ESE visible
20 Jul 3.2 01:22:58 10° N 01:27:28 29° WNW 01:29:08 24° W visible
20 Jul 4.0 23:18:58 10° NE 23:22:44 19° E 23:22:49 19° E visible
21 Jul 2.5 00:57:38 10° N 01:02:44 48° WNW 01:03:52 41° WSW visible
21 Jul 4.6 22:56:31 10° ENE 22:57:32 10° E 22:57:32 10° E visible
22 Jul 2.0 00:32:34 10° NNE 00:37:55 83° WNW 00:38:35 68° SSW visible
22 Jul 4.3 02:16:13 10° NW 02:16:48 10° WNW 02:17:23 10° WNW visible
23 Jul 2.4 00:07:44 10° NNE 00:13:00 58° E 00:13:18 57° ESE visible
23 Jul 3.8 01:48:50 10° NNW 01:52:16 18° WNW 01:54:21 14° W visible
23 Jul 3.3 23:43:12 10° NNE 23:47:59 33° E 23:48:01 33° E visible
24 Jul 3.2 01:23:06 10° N 01:27:37 29° WNW 01:29:04 25° W visible
24 Jul 4.0 23:19:07 10° NE 23:22:44 19° E 23:22:44 19° E visible
25 Jul 2.5 00:57:46 10° N 01:02:53 48° WNW 01:03:47 44° WSW visible
25 Jul 4.6 22:56:41 10° ENE 22:57:27 10° E 22:57:27 10° E visible
